Résultat compétition

ESF REALLON "ESF SKI TOUR 2015", le 31/01/2015   picture_as_pdf

 Epreuve antérieure au 1er Décembre 2018, ne comptant plus pour le classement SkiOpen.

Ouvreur Handicap Temps Réalisé Temps Base
LELONG OLIVIER 6.00 55.87 52.71
Médaille Or Vermeil Argent Bronze Fléchette
Pourcentage 15.00% 28.00% 40.00% 45.00% 50.00%
Temps 1:00.62 1:07.47 1:13.79 1:19.07 1:21.70
Clt.  expand_more Identité Code S. An Cat Temps Pts Médaille PDF Cor.
1 SANCHEZ ACHILLE FFS2647050 M 2001 BEN 58.04 10.11 Or picture_as_pdf edit
2 BONNAFFOUX CHLOE FFS2663233 F 2001 BEN 59.26 12.43 Or picture_as_pdf edit
3 JACQUEMOND THEO FFS2668141 M 2001 BEN 1:00.05 13.93 Or picture_as_pdf edit
4 RIPPERT DYLAN FFS2668210 M 1999 MIN 1:00.39 14.57 Or picture_as_pdf edit
5 ROTONDO LEO ESF1464410066 M 2001 BEN 1:00.43 14.65 Or picture_as_pdf edit
6 ROUX MATHILDE FFS2649999 F 2001 BEN 1:01.32 16.33 Vermeil picture_as_pdf edit
7 CHANTOIS SOLENE FFS2676052 F 2003 POU 1:01.41 16.51 Vermeil picture_as_pdf edit
8 MEERT ANDREA FFS2658685 M 2000 MIN 1:01.65 16.96 Vermeil picture_as_pdf edit
9 FISCHER JULIE FFS2658904 F 2000 MIN 1:01.85 17.34 Vermeil picture_as_pdf edit
10 MEDDE ISAURE FFS2662850 F 2000 MIN 1:03.03 19.58 Vermeil picture_as_pdf edit
11 ABOU JOHANNA FFS2668021 F 2003 POU 1:03.10 19.71 Vermeil picture_as_pdf edit
12 GLEIZE ALEXANDRE FFS2657148 M 2002 BEN 1:03.15 19.81 Vermeil picture_as_pdf edit
13 FRIEDEWALD SAMUEL FFS2663032 M 2001 BEN 1:03.91 21.25 Vermeil picture_as_pdf edit
14 BELMONTE JOHAN FFS2668907 M 2002 BEN 1:04.45 22.27 Vermeil picture_as_pdf edit
15 REYNIER LUCIE FFS2645944 F 2001 BEN 1:04.84 23.01 Vermeil picture_as_pdf edit
16 ERARIO SOLENE FFS2669297 F 2000 MIN 1:05.03 23.37 Vermeil picture_as_pdf edit
17 BOISSET THOMAS FFS2668739 M 2002 BEN 1:05.71 24.66 Vermeil picture_as_pdf edit
18 JOUVET ENGUERAN FFS2674549 M 2003 POU 1:06.15 25.50 Vermeil picture_as_pdf edit
19 CHESNEL MATHIS FFS2650003 M 2002 BEN 1:06.16 25.52 Vermeil picture_as_pdf edit
20 PONS VALERE FFS2678032 M 2004 POU 1:06.56 26.28 Vermeil picture_as_pdf edit
21 PATRAS MARGOT FFS2658710 F 2001 BEN 1:06.65 26.45 Vermeil picture_as_pdf edit
22 BLANC MATHIAS FFS2666721 M 2004 POU 1:06.67 26.48 Vermeil picture_as_pdf edit
23 MURELLO LORENZO FFS2659329 M 2004 POU 1:06.83 26.79 Vermeil picture_as_pdf edit
24 GROLLIER JULIE FFS2674166 F 2004 POU 1:06.85 26.83 Vermeil picture_as_pdf edit
25 MURELLO STELLA FFS2659330 F 2004 POU 1:07.00 27.11 Vermeil picture_as_pdf edit
26 LARD SAMUEL FFS2668207 M 1999 MIN 1:07.26 27.60 Vermeil picture_as_pdf edit
27 CHANTOIS MAYLIS FFS2676056 F 2001 BEN 1:07.45 27.96 Vermeil picture_as_pdf edit
28 DITTMANN LUCAS ESF1464410079 M 2000 MIN 1:07.56 28.17 Argent picture_as_pdf edit
29 ARNERA ROBIN FFS2652572 M 2005 MIC 1:08.15 29.29 Argent picture_as_pdf edit
30 STEFANI NELL FFS2669128 F 2002 BEN 1:08.22 29.43 Argent picture_as_pdf edit
31 SEGURA MATHIS ESF1332310075 M 2002 BEN 1:08.42 29.80 Argent picture_as_pdf edit
32 CRAISSE LOUNA FFS2645935 F 2002 BEN 1:08.59 30.13 Argent picture_as_pdf edit
33 FERRIER ISABEL FFS2674169 F 2003 POU 1:08.60 30.15 Argent picture_as_pdf edit
34 PONS CHLOE FFS2679149 F 2005 MIC 1:09.45 31.76 Argent picture_as_pdf edit
35 POLI JULES ESF1464410056 M 2002 BEN 1:09.58 32.01 Argent picture_as_pdf edit
36 BRUNET DEBAINES THOMAS ESF1564410009 M 2002 BEN 1:09.62 32.08 Argent picture_as_pdf edit
37 DESTOUMIEUX HUGO FFS2673556 M 2005 MIC 1:09.93 32.67 Argent picture_as_pdf edit
38 OLMO EMILIE FFS2674164 F 2006 MIC 1:10.01 32.82 Argent picture_as_pdf edit
39 PATRAS SAMY FFS2658709 M 2003 POU 1:10.27 33.31 Argent picture_as_pdf edit
40 FORNARO CLEMENT FFS2678040 M 2004 POU 1:10.36 33.49 Argent picture_as_pdf edit
41 DEMAISON CHARLIE FFS2674168 M 2006 MIC 1:10.62 33.98 Argent picture_as_pdf edit
42 DARRIES PIERRE FFS2678289 M 1999 MIN 1:10.64 34.02 Argent picture_as_pdf edit
43 JACQUEMOND THOMAS FFS2672913 M 2004 POU 1:10.70 34.13 Argent picture_as_pdf edit
44 WAY MATHILDE FFS2678283 F 2003 POU 1:10.74 34.21 Argent picture_as_pdf edit
45 BARD CHARLY FFS2674547 M 2004 POU 1:10.88 34.47 Argent picture_as_pdf edit
46 SERRES ELIE ESF1564410060 M 2002 BEN 1:10.93 34.57 Argent picture_as_pdf edit
47 CARON MOUTINHO NATHAN FFS2653423 M 2002 BEN 1:11.00 34.70 Argent picture_as_pdf edit
48 FAURE BRAC CAPUCINE FFS2678285 F 2006 MIC 1:11.52 35.69 Argent picture_as_pdf edit
49 ACCART JUSTINE FFS2664919 F 2004 POU 1:11.80 36.22 Argent picture_as_pdf edit
50 PAULUS VANINA ESF1252161139 F 2004 POU 1:11.81 36.24 Argent picture_as_pdf edit
51 BARRE KHALIL ESF1452162370 M 2003 POU 1:12.27 37.11 Argent picture_as_pdf edit
52 DOHET JORIS FFS2653084 M 2002 BEN 1:12.36 37.28 Argent picture_as_pdf edit
53 BLANC CELIA FFS2666000 F 2005 MIC 1:12.42 37.39 Argent picture_as_pdf edit
54 BROCHIER EMY FFS2678286 F 2003 POU 1:12.60 37.73 Argent picture_as_pdf edit
55 DANAU LENA FFS2679428 F 2000 MIN 1:13.27 39.01 Argent picture_as_pdf edit
56 PAULUS MATTHIAS FFS2679424 M 2002 BEN 1:13.50 39.44 Argent picture_as_pdf edit
57 SERRES SUZY ESF1564410061 F 2001 BEN 1:14.09 40.56 Bronze picture_as_pdf edit
58 MELIKIAN THEO ESF1552160776 M 2014 MIC 1:14.42 41.19 Bronze picture_as_pdf edit
59 DOU MAXIME FFS2679528 M 2007 MIC 1:14.45 41.24 Bronze picture_as_pdf edit
60 CRESPIN MAELLE FFS2680128 F 2006 MIC 1:14.67 41.66 Bronze picture_as_pdf edit
61 REYNIER ARTHUR ESF1252161055 M 2003 POU 1:14.90 42.10 Bronze picture_as_pdf edit
62 GIRARD LLUCIA FFS2679301 F 2007 MIC 1:15.35 42.95 Bronze picture_as_pdf edit
63 LOUCHE ZOE FFS2680487 F 2005 MIC 1:15.76 43.73 Bronze picture_as_pdf edit
64 SECCI MATTIA FFS2679251 M 2005 MIC 1:16.28 44.72 Bronze picture_as_pdf edit
65 PECOURT THOMAS ESF0952160789 M 2002 BEN 1:16.77 45.65 Bronze picture_as_pdf edit
66 HUBERT CHLOE FFS2680033 F 2007 MIC 1:17.17 46.40 Bronze picture_as_pdf edit
67 CIAVATTI MATHIS FFS2671973 M 2005 MIC 1:17.18 46.42 Bronze picture_as_pdf edit
68 PONS ARISTIDE FFS2678034 M 2007 MIC 1:18.65 49.21 Bronze picture_as_pdf edit
69 RAYMOND JULIE FFS2678954 F 2000 MIN 1:20.31 52.36 Fléchette picture_as_pdf edit
70 BLANC MATHILDA FFS2666720 F 2005 MIC 1:20.65 53.01 Fléchette picture_as_pdf edit
71 ROUIT MATTEO FFS2679963 M 2006 MIC 1:21.23 54.11 Fléchette picture_as_pdf edit
72 BROCHE JOHAN ESF1464410078 M 2000 MIN 1:22.07 55.70 picture_as_pdf edit
73 ANTOINE MARINE ESF1348510290 F 2005 MIC 1:24.08 59.51 picture_as_pdf edit
74 ABOU VICTORIA FFS2679304 F 2007 MIC 1:25.86 62.89 picture_as_pdf edit
NASRI ENZO ESF1552161052 M 2001 BEN ABD picture_as_pdf edit
BELMONTE HUGO FFS2679490 M 2005 MIC ABD picture_as_pdf edit
DAVID JOCELYN FFS2658602 M 2004 POU ABD picture_as_pdf edit
LACOMBE HUGO ESF1264410161 M 2000 MIN ABD picture_as_pdf edit
STEFANI LEA FFS2662856 F 2000 MIN ABD picture_as_pdf edit
PONS ARTHUR FFS2668195 M 2001 BEN ABD picture_as_pdf edit
THOMAS AMANDINE FFS2646945 F 2000 MIN ABD picture_as_pdf edit
MULDER TESSA FFS2645734 F 1999 MIN ABD picture_as_pdf edit
BONNAFFOUX CAMILLE FFS2664560 F 2004 POU ABD picture_as_pdf edit
FERRIER LEO FFS2679962 M 2006 MIC DSQ picture_as_pdf edit
LECOCQ ENZO FFS2680231 M 2003 POU DSQ picture_as_pdf edit
GUILLON YAEL FFS2657147 M 2002 BEN DSQ picture_as_pdf edit
CONTRUCCI MARCUS FFS2673405 M 2002 BEN DSQ picture_as_pdf edit
LE GALL DAMIEN FFS2673968 M 2000 MIN ABS picture_as_pdf edit
DESJARDINS CHARLY FFS2671403 M 2006 MIC ABS picture_as_pdf edit